SYRACUSE 3B

Last updated on Nov. 22, 2019, 4:19 a.m. UTC

1 29273U 06033B   19325.15893057 -.00000045  00000-0  00000+0 0  9992
2 29273   0.0135 302.0924 0003710 295.1144 234.7070  1.00273477 48681
UTC
Height (km)
Latitude
Longitude
Inclination
Orbital Period
UTC large
Height (km)
Speed (km/s)
/
Latitude / Longitude
Inclination (degrees)
Orbital Period (minutes)
Azimuth
Elevation
Range (km)
Doppler Factor
iOS Compass Heading
iOS Angle

Next 30 passes for location: Hong Kong

Rise time Rise Azimuth (degrees) Set time Set Azimuth (degrees) Duration Max altitude (degrees)

No matching passes for this satellites